Location: Newark
(48.1500°N, 2.9667°W)
Time: 00:33:40
(UTC+00:00)

A-11 Canister half - Pass Details

Date: 02 February 2020
Orbit: 1517 x 1683 km, 47.2° (Epoch: 24 February)

Event Time Altitude Azimuth Distance (km) Brightness Sun altitude
Exits shadow 04:09:40 30° 175° (S) 2,444 9.9 -35.0°
Drops below altitude 10° 04:14:32 10° 152° (SSE) 3,687 11.1 -34.2°
Sets 04:17:48 0° 145° (SE) 4,680 11.8 -33.7°
